[[{"header":{"parameterUnit":"m.s-1","parameterCategory":1,"la1":30.2991,"la2":30.254,"lo1":-89.0895,"lo2":-89.0444,"dy":0.0017,"dx":0.0017,"nx":28,"ny":28,"refTime":"2026-02-04T09:00:00:Z","depth":0,"parameterNumber":2,"parameterNumberName":"U-component_of_WINDS"},"data":[0,0,0,0,0,0,0,0,0,0,0,0,0,0,0,0,0,0,0,0,0,0,0,0,0,0,0,0,0,0,0,0,0,0,0,0,0,0,0,0,0,0,0,0,0,0,0,0,0,0,0,0,0,0,0,0,0,0,3.0589,3.0589,0,3.0585,3.0584,3.0584,3.0532,3.053,3.0529,3.0528,3.0522,3.0524,3.0525,0,0,0,0,0,0,0,0,0,0,0,0,0,3.0554,3.0555,3.0589,3.0589,3.0589,3.0585,3.0584,3.0584,3.0532,3.053,3.0529,3.0527,3.0522,3.0523,3.0525,0,0,0,0,0,0,0,0,0,0,0,0,0,3.0561,3.0555,3.0589,3.0563,3.056,3.0585,3.0584,3.0584,3.0532,3.053,3.0528,3.0527,3.0522,3.0523,3.0525,3.0574,0,0,3.053,3.0531,0,0,0,0,0,0,0,0,3.0561,3.0563,3.0567,3.0565,3.0562,3.0557,3.057,3.0581,3.0533,3.0543,3.0528,3.0526,3.0535,3.0536,3.0539,3.0574,3.0574,3.053,3.0531,3.0532,3.0532,0,0,0,0,0,0,0,3.056,3.0563,3.0587,3.0567,3.0564,3.0551,3.055,3.0572,3.055,3.0542,3.0538,3.0538,3.0534,3.0538,3.0539,3.0574,3.053,3.0531,3.0532,3.0533,3.065,3.0652,0,0,0,0,0,0,3.0564,3.0562,3.0588,3.0587,3.0557,3.0553,3.0552,3.056,3.055,3.0546,3.054,3.0536,3.0536,3.0537,3.0538,3.0596,3.0532,3.0533,3.0534,3.0648,3.0651,3.0653,0,0,0,0,0,0,3.0563,3.0566,3.0588,3.0574,3.0576,3.0556,3.0566,3.0561,3.0565,3.0548,3.0544,3.0548,3.0534,3.0536,3.0566,3.0595,3.0534,3.0535,3.0645,3.0649,3.0652,3.0711,0,0,0,0,0,0,3.0562,3.0567,3.0585,3.0575,3.0577,3.0616,3.0568,3.0563,3.0568,3.0563,3.0555,3.0552,3.0533,3.0564,3.0568,3.0596,3.0537,3.0643,3.0647,3.0651,3.0707,3.0716,3.0724,0,0,0,0,0,3.0561,3.0602,3.0586,3.0589,3.0599,3.0617,3.0618,3.0596,3.0571,3.0589,3.0579,3.0552,3.0591,3.0567,3.0571,3.06,3.0641,3.0646,3.065,3.0703,3.0714,3.0724,0,0,0,0,0,0,3.0615,3.06,3.0582,3.062,3.0621,3.0608,3.0631,3.0609,3.0616,3.0611,3.0583,3.0582,3.0616,3.0611,3.0585,3.0648,3.0612,3.0617,3.065,3.0661,3.0669,3.0669,3.0538,0,0,0,0,0,3.0632,3.0648,3.0633,3.0668,3.067,3.0651,3.0658,3.0641,3.064,3.0639,3.0631,3.0631,3.0643,3.0652,3.0662,3.0706,3.0704,3.0728,3.0737,3.0744,3.0749,3.0773,3.0783,3.0669,3.0669,3.0669,0,0,3.0665,3.0659,3.0671,3.0679,3.0677,3.0695,3.0651,3.0671,3.0683,3.0642,3.067,3.0664,3.0662,3.07,3.0716,3.0697,3.0781,3.0751,3.0756,3.0757,3.0779,3.079,3.0799,3.0672,3.0671,3.0671,0,0,3.0736,3.0733,3.0762,3.0761,3.0759,3.0746,3.0754,3.0745,3.074,3.0767,3.0737,3.0752,3.0774,3.0774,3.0777,3.085,3.0825,3.0854,3.09,3.0923,3.0932,3.094,3.0965,3.0975,3.0859,3.086,3.086,0,3.0778,3.0803,3.0779,3.0802,3.0807,3.0771,3.0801,3.0801,3.0803,3.0807,3.0786,3.0813,3.081,3.0847,3.0865,3.0868,3.0876,3.0854,3.0932,3.094,3.0947,3.0971,3.0981,3.0863,3.0863,3.0862,3.0862,0,3.0855,3.0873,3.0896,3.0899,3.0907,3.0933,3.0914,3.0925,3.0908,3.0898,3.0927,3.0921,3.093,3.0938,3.0922,3.0973,3.0962,3.0937,3.0899,3.0962,3.0984,3.0993,3.0868,3.0867,3.0866,3.0865,0,0,3.0957,3.0948,3.0957,3.0958,3.0955,3.0968,3.0993,3.1002,3.1012,3.1015,3.1035,3.1055,3.1033,3.1036,3.102,3.104,3.1098,3.1013,3.1012,3.1029,3.1155,3.1173,3.1184,3.1083,3.1084,3.1086,3.1155,0,3.1024,3.1066,3.1046,3.109,3.1107,3.1074,3.1096,3.1096,3.1088,3.1101,3.1092,3.1106,3.1076,3.1078,3.1097,3.1087,3.1123,3.1082,3.1101,3.1102,3.1101,3.1196,3.1215,3.128,3.1164,3.1165,3.1166,0,3.1108,3.1115,3.1161,3.1155,3.1161,3.1181,3.1189,3.1202,3.1202,3.1194,3.1199,3.1178,3.1202,3.1166,3.1199,3.1172,3.1179,3.1176,3.1178,3.1178,3.1137,3.1198,3.1301,3.131,3.118,3.1179,3.1178,0,3.1178,3.1199,3.1229,3.1231,3.1226,3.124,3.1239,3.1237,3.1244,3.1251,3.1255,3.1265,3.127,3.1278,3.126,3.1236,3.1296,3.1258,3.129,3.1291,3.1304,3.1303,3.1408,3.1309,3.1309,3.1309,3.1309,0,3.1255,3.1284,3.1261,3.1279,3.1311,3.1289,3.1322,3.1316,3.1315,3.1332,3.1305,3.1322,3.1298,3.1312,3.1299,3.1328,3.1331,3.1326,3.1322,3.1328,3.1328,3.1331,3.1326,3.1312,3.1311,3.1311,3.131,0,3.1337,3.1323,3.1354,3.1346,3.1345,3.1369,3.1363,3.138,3.137,3.1392,3.1396,3.1381,3.1397,3.1381,3.1395,3.1386,3.1426,3.1415,3.1426,3.1423,3.1456,3.1453,3.1566,3.1579,3.1473,3.1474,3.1475,0,3.1387,3.1409,3.1404,3.1414,3.1414,3.143,3.1438,3.1417,3.1426,3.1429,3.1446,3.1459,3.1469,3.1496,3.1486,3.1497,3.1487,3.1526,3.1488,3.1494,3.1487,3.1485,3.1487,3.1533,3.1534,3.1535,3.1536,0,3.1476,3.1469,3.1481,3.1491,3.1501,3.1508,3.1513,3.1522,3.1501,3.1513,3.1529,3.1537,3.1552,3.1566,3.1575,3.1573,3.1551,3.1548,3.1556,3.1562,3.1567,3.1565,3.1446,3.1545,3.1544,3.1544,3.1543,3.1543,3.1543,3.1562,3.1562,3.1576,3.1578,3.1584,3.16,3.1593,3.1606,3.1617,3.1605,3.1624,3.1625,3.1634,3.1635,3.165,3.1634,3.1646,3.1648,3.1651,3.1656,3.1566,3.1652,3.1652,3.1651,3.1651,3.1651,0,3.1631,3.163,3.1644,3.1652,3.1664,3.1644,3.1648,3.1659,3.1677,3.168,3.1691,3.1709,3.1723,3.1715,3.1727,3.1741,3.1731,3.1745,3.1743,3.1743,3.167,3.1662,3.1752,3.1752,3.1752,3.1752,3.1752,3.1752,3.1678,3.1708,3.1701,3.1732,3.173,3.175,3.1754,3.1759,3.1761,3.1784,3.1796,3.1791,3.1789,3.1801,3.1813,3.181,3.1816,3.1833,3.1826,3.1758,3.1748,3.1739,3.1731,3.1834,3.1834,3.1898,3.1898,3.1899]},{"header":{"parameterUnit":"m.s-1","parameterCategory":1,"la1":30.2991,"la2":30.254,"lo1":-89.0895,"lo2":-89.0444,"dy":0.0017,"dx":0.0017,"nx":28,"ny":28,"refTime":"2026-02-04T09:00:00:Z","depth":0,"parameterNumber":3,"parameterNumberName":"V-component_of_WINDS"},"data":[0,0,0,0,0,0,0,0,0,0,0,0,0,0,0,0,0,0,0,0,0,0,0,0,0,0,0,0,0,0,0,0,0,0,0,0,0,0,0,0,0,0,0,0,0,0,0,0,0,0,0,0,0,0,0,0,0,0,-7.1236,-7.1238,0,-7.1404,-7.1406,-7.1407,-7.1346,-7.1342,-7.1338,-7.1335,-7.1502,-7.151,-7.1518,0,0,0,0,0,0,0,0,0,0,0,0,0,-7.0858,-7.0866,-7.1236,-7.1238,-7.124,-7.1403,-7.1406,-7.1408,-7.1347,-7.1342,-7.1337,-7.1333,-7.15,-7.1509,-7.1519,0,0,0,0,0,0,0,0,0,0,0,0,0,-7.1024,-7.0868,-7.1235,-7.1229,-7.123,-7.1403,-7.1406,-7.1408,-7.1348,-7.1342,-7.1336,-7.1331,-7.1496,-7.1508,-7.152,-7.1707,0,0,-7.1557,-7.1562,0,0,0,0,0,0,0,0,-7.1014,-7.1038,-7.1228,-7.123,-7.1231,-7.1348,-7.1334,-7.1509,-7.1349,-7.1303,-7.1335,-7.1328,-7.1455,-7.147,-7.1514,-7.1715,-7.1722,-7.1558,-7.1565,-7.157,-7.1573,0,0,0,0,0,0,0,-7.1003,-7.103,-7.1302,-7.1231,-7.1233,-7.1217,-7.1234,-7.1367,-7.1409,-7.1306,-7.1302,-7.1323,-7.1455,-7.1503,-7.1518,-7.1725,-7.1557,-7.1568,-7.1575,-7.158,-7.2088,-7.2094,0,0,0,0,0,0,-7.0991,-7.1021,-7.1297,-7.1307,-7.1107,-7.1228,-7.1247,-7.1316,-7.1407,-7.1416,-7.1328,-7.132,-7.1485,-7.1504,-7.1523,-7.1749,-7.157,-7.1581,-7.1588,-7.2082,-7.209,-7.2097,0,0,0,0,0,0,-7.0984,-7.1017,-7.129,-7.1163,-7.1197,-7.1241,-7.1319,-7.1323,-7.137,-7.1423,-7.143,-7.1369,-7.1481,-7.1506,-7.1662,-7.1754,-7.1587,-7.1597,-7.2075,-7.2084,-7.2093,-7.2202,0,0,0,0,0,0,-7.0973,-7.1014,-7.1087,-7.1165,-7.1204,-7.1428,-7.1324,-7.133,-7.1392,-7.1382,-7.1464,-7.1472,-7.1479,-7.1645,-7.1674,-7.1767,-7.1607,-7.2067,-7.2079,-7.209,-7.219,-7.2214,-7.2234,0,0,0,0,0,-7.096,-7.1109,-7.1091,-7.1124,-7.1295,-7.1433,-7.1455,-7.1461,-7.1399,-7.1472,-7.1506,-7.1469,-7.1739,-7.1661,-7.1694,-7.1792,-7.2061,-7.2075,-7.2089,-7.2181,-7.2209,-7.2234,0,0,0,0,0,0,-7.1039,-7.112,-7.11,-7.128,-7.135,-7.1423,-7.1515,-7.1491,-7.158,-7.1568,-7.157,-7.1589,-7.175,-7.1786,-7.1698,-7.1978,-7.189,-7.1912,-7.1949,-7.1977,-7.1998,-7.1986,-7.1617,0,0,0,0,0,-7.1078,-7.1184,-7.1248,-7.1401,-7.1437,-7.147,-7.153,-7.1529,-7.1602,-7.1631,-7.1676,-7.1747,-7.1848,-7.1914,-7.201,-7.2195,-7.2212,-7.2279,-7.2301,-7.2318,-7.2337,-7.2438,-7.2468,-7.2143,-7.2143,-7.2143,0,0,-7.1158,-7.1215,-7.1282,-7.1418,-7.1473,-7.1582,-7.1496,-7.1615,-7.1695,-7.1648,-7.1799,-7.1835,-7.1914,-7.2086,-7.2164,-7.2122,-7.243,-7.2336,-7.235,-7.2359,-7.2456,-7.2486,-7.2514,-7.2153,-7.2151,-7.215,0,0,-7.136,-7.1415,-7.1548,-7.1605,-7.169,-7.1711,-7.1743,-7.1819,-7.1842,-7.1994,-7.1961,-7.2056,-7.223,-7.2288,-7.234,-7.2565,-7.2535,-7.2596,-7.271,-7.2809,-7.2834,-7.2857,-7.2938,-7.2967,-7.2614,-7.2615,-7.2615,0,-7.1449,-7.1614,-7.1619,-7.1742,-7.1802,-7.1767,-7.1901,-7.1956,-7.2067,-7.2109,-7.206,-7.2278,-7.2328,-7.2513,-7.2569,-7.2612,-7.2648,-7.2587,-7.2831,-7.2853,-7.2875,-7.2952,-7.2982,-7.2622,-7.2621,-7.262,-7.2619,0,-7.1719,-7.1834,-7.1931,-7.2041,-7.2113,-7.2241,-7.2264,-7.2336,-7.2329,-7.2354,-7.2509,-7.2569,-7.2676,-7.272,-7.2713,-7.2905,-7.2876,-7.2829,-7.2741,-7.2913,-7.2985,-7.3014,-7.2632,-7.2629,-7.2627,-7.2625,0,0,-7.1976,-7.2088,-7.2124,-7.2173,-7.2264,-7.2352,-7.2478,-7.2585,-7.2647,-7.2724,-7.2829,-7.2978,-7.2935,-7.2995,-7.2994,-7.3081,-7.3256,-7.3023,-7.3025,-7.3064,-7.347,-7.3505,-7.3539,-7.3236,-7.3242,-7.3246,-7.3464,0,-7.2186,-7.2409,-7.2418,-7.262,-7.2726,-7.2694,-7.2804,-7.2871,-7.2899,-7.2991,-7.3021,-7.3126,-7.3062,-7.3098,-7.3182,-7.3217,-7.3337,-7.3201,-7.3333,-7.3338,-7.3315,-7.3577,-7.3614,-7.3816,-7.3492,-7.3497,-7.35,0,-7.246,-7.2549,-7.2763,-7.284,-7.2884,-7.2983,-7.3082,-7.3171,-7.3246,-7.326,-7.3327,-7.3314,-7.3442,-7.335,-7.3526,-7.3433,-7.3487,-7.3513,-7.352,-7.3533,-7.3429,-7.3596,-7.3881,-7.3911,-7.3545,-7.3541,-7.3538,0,-7.2627,-7.2799,-7.2949,-7.2993,-7.3086,-7.3156,-7.3198,-7.3267,-7.3331,-7.3417,-7.3458,-7.3557,-7.3611,-7.3688,-7.3701,-7.3633,-7.3878,-7.3787,-7.3892,-7.3892,-7.3945,-7.3941,-7.4242,-7.398,-7.398,-7.3979,-7.3979,0,-7.286,-7.2992,-7.3025,-7.3118,-7.3265,-7.3273,-7.3418,-7.3454,-7.3517,-7.3615,-7.3593,-7.3685,-7.3698,-7.3793,-7.3804,-7.3948,-7.3973,-7.3987,-7.3988,-7.3989,-7.3988,-7.4025,-7.4011,-7.3987,-7.3985,-7.3984,-7.3983,0,-7.307,-7.3098,-7.326,-7.3335,-7.3357,-7.3462,-7.3526,-7.3614,-7.364,-7.3765,-7.3794,-7.3834,-7.3945,-7.3967,-7.4097,-7.4105,-7.4276,-7.4264,-7.4252,-7.425,-7.4355,-7.4345,-7.469,-7.4736,-7.4444,-7.4447,-7.4449,0,-7.3218,-7.3319,-7.3406,-7.3471,-7.3517,-7.3622,-7.3687,-7.3699,-7.3768,-7.3862,-7.3939,-7.4048,-7.4136,-7.4315,-7.4354,-7.4454,-7.4443,-7.4558,-7.4458,-7.4456,-7.4445,-7.4439,-7.4449,-7.4577,-7.458,-7.4582,-7.4584,0,-7.3476,-7.3485,-7.3581,-7.3683,-7.3763,-7.3843,-7.3918,-7.3973,-7.3994,-7.4073,-7.4187,-7.4256,-7.439,-7.4499,-7.4599,-7.464,-7.4616,-7.4616,-7.4645,-7.4647,-7.4636,-7.4644,-7.4304,-7.4607,-7.4605,-7.4603,-7.4602,-7.4601,-7.366,-7.3749,-7.3824,-7.3932,-7.3991,-7.4063,-7.415,-7.4187,-7.4283,-7.4395,-7.4395,-7.452,-7.4593,-7.4725,-7.4773,-7.487,-7.4834,-7.4877,-7.4887,-7.4898,-7.4908,-7.4621,-7.4888,-7.4887,-7.4887,-7.4886,-7.4886,0,-7.3918,-7.3965,-7.4064,-7.4172,-7.4257,-7.4229,-7.4312,-7.4384,-7.4495,-7.4566,-7.4653,-7.4785,-7.489,-7.4939,-7.5042,-7.5111,-7.5102,-7.5137,-7.5132,-7.5142,-7.4934,-7.4899,-7.5143,-7.5142,-7.5142,-7.5142,-7.5142,-7.5142,-7.4062,-7.4211,-7.4229,-7.4407,-7.4452,-7.4576,-7.4626,-7.4692,-7.4748,-7.4897,-7.4985,-7.5016,-7.5078,-7.5186,-7.5281,-7.5292,-7.5331,-7.5372,-7.5378,-7.5183,-7.5157,-7.5132,-7.5098,-7.538,-7.5381,-7.5578,-7.558,-7.5581]}]]